Miscellaneous Local Product
Issued by NWS North Platte, NE

Home | Current Version | Previous Version | Text Only | Print | Product List | Glossary On
Versions: 1 2 3 4 5 6 7 8 9 10 11 12 13 14 15 16 17 18 19 20 21 22 23 24 25 26 27 28 29 30 31 32 33 34 35 36 37 38 39 40 41 42 43 44 45 46 47 48 49 50
000
AXUS43 KLBF 222210
MISLBF


WESTERN AND NORTH CENTRAL NEBRASKA HOURLY WEATHER ROUNDUP
NATIONAL WEATHER SERVICE NORTH PLATTE NE
500 PM CDT FRI JUL 22 2016

NOTE: "FAIR" INDICATES FEW OR NO CLOUDS BELOW 12,000 FEET WITH NO
SIGNIFICANT WEATHER AND/OR OBSTRUCTIONS TO VISIBILITY.

NOTE: STATIONS NOT REPORTING VARIABLES SUCH AS SKY/WEATHER OR
PRESSURE ARE PROVIDED BY RAWS AND APRS NETWORKS AND ARE NOT UNDER
NATIONAL WEATHER SERVICE QUALITY CONTROL.

...OBSERVATIONS IN AND NEAR THE EASTERN PANHANDLE OF NEBRASKA...

CITY           SKY/WX    TMP DP  RH WIND       PRES   REMARKS
PINE RIDGE     CLOUDY    93  50  23 SE15      30.00F HX  90
CHADRON        PTSUNNY   87  62  43 SE3       29.98F
ALLIANCE       LGT RAIN  69  63  81 NE23G37   30.07R
SIDNEY         MOSUNNY   99  58  25 S20G25    30.06F HX  98
CRESCENT LAKE    N/A     80  60  50 S13G22      N/A
$$

...OBSERVATIONS IN NORTHERN NEBRASKA AND FAR SOUTHERN SOUTH DAKOTA...

CITY           SKY/WX    TMP DP  RH WIND       PRES   REMARKS
WINNER         FAIR      97  70  41 E9        29.95F HX 103
VALENTINE      MOSUNNY   98  62  30 E12       29.97F HX  99
THEDFORD       SUNNY     98  65  33 SE12      30.00S HX 102
AINSWORTH      CLOUDY    93  74  53 E7        29.97F HX 104
O`NEILL        SUNNY     97  72  44 E9        29.94F HX 105
ORD            SUNNY     96  74  48 SE9       29.92F HX 107
BROKEN BOW     SUNNY     93  77  59 E9        29.96F HX 107
VALENTINE NWR    N/A     97  62  31 SE10        N/A  HX  98
BUTTE            N/A     92  78  62 E6          N/A  HX 106
HALSEY           N/A     96  68  39 E7          N/A  HX 100
EWING            N/A     92  82  71 E3          N/A  HX 113
$$

...OBSERVATIONS IN SOUTHWEST NEBRASKA AND FAR NORTHEAST COLORADO...

CITY           SKY/WX    TMP DP  RH WIND       PRES   REMARKS
HOLYOKE        FAIR      99  63  30 W8        30.02F HX 100
IMPERIAL       CLOUDY    96  62  32 E13       29.99F HX  97
OGALLALA       CLOUDY    94  60  32 E7        30.00F HX  94
NORTH PLATTE   SUNNY     95  76  53 E10       29.97F HX 108
MCCOOK         CLOUDY    97  66  36 SE15      29.95F HX 100
LEXINGTON      SUNNY     95  75  51 E9        29.95F HX 107
STAPLETON        N/A     94  76  55 CALM        N/A  HX 106
GOTHENBURG       N/A     95  72  47 SE5         N/A  HX 103
CALLAWAY         N/A     95  79  59 SE8         N/A  HX 112
$$

...OBSERVATIONS IN CENTRAL LINCOLN COUNTY AREA...

CITY           SKY/WX    TMP DP  RH WIND       PRES   REMARKS
N.P. AIRPORT   SUNNY     95  76  53 E10       29.97F HX 108
N.P. DOWNTOWN    N/A     95  77  55 E6          N/A  HX 109
N.P. SOUTHEAST   N/A     97  77  52 CALM        N/A  HX 112
N.P. HILLCREST   N/A     94  74  52 SE9         N/A  HX 104
$$

...SOME OBSERVATIONS FROM AROUND THE REGION...

CITY           SKY/WX    TMP DP  RH WIND       PRES   REMARKS
DENVER         CLOUDY    92  47  21 W9        30.14F
LARAMIE        CLOUDY    84  42  22 W6        30.28F
CHEYENNE       CLOUDY    79  46  31 S17G26    30.22S
SCOTTSBLUFF    CLOUDY    92  61  35 E10       30.01F HX  92
RAPID CITY     CLOUDY    92  58  31 SE14      29.97F HX  91
BISMARCK       MOSUNNY   88  76  67 E16       29.97F HX  99
PIERRE         SUNNY     98  66  34 E20G25    29.90F HX 101
SIOUX FALLS    PTSUNNY   92  79  65 NE15      29.96S HX 108
OMAHA          PTSUNNY   94  80  64 SE17      29.91F HX 113
GRAND ISLAND   CLOUDY    92  70  48 S15       29.93F HX  97
KANSAS CITY    MOSUNNY   93  78  61 S13       29.96F HX 108
WICHITA        MOSUNNY  104  62  25 S14       29.93F HX 106
OKLAHOMA CITY  MOSUNNY   99  63  30 S13       29.99F HX 101
DALLAS         MOSUNNY   99  63  30 S12       29.98F HX 101
AMARILLO       SUNNY     98  53  22 S10       30.09F HX  96
DODGE CITY     SUNNY    101  57  23 S17       29.98F HX 100
HAYS           SUNNY    106  61  23 S17       29.92F HX 107
GOODLAND       SUNNY    101  53  20 S8        30.01F HX  99
$$




USA.gov is the U.S. government's official web portal to all federal, state and local government web resources and services.